M I D A S
Marine Information and Data Acquisition System
Tripno 61 of the Zeeleeuw from 2001-08-29 06:08:12 to 2001-08-29 16:50:04
Back to CruiseResearch ActivitiesStationsMapUnderway DataData graphs

EquipmentUnitsComment
TimeDGPSUTC
LatitudeDGPSDM.mWGS84
LongitudeDGPSDM.mWGS84
TemperatureSBE03/SBE38deg celciusITS90
ConductivitySBE21S/mITS90
SalinitySBE21 Practical Salinity Units
ChlorophylAChelsea fluorimeterg/lCalibrated in Aceton
Missing or incorrect values are displayed as -999
Sea surface data collected by the RV Zeeleeuw from 2001-08-29 06:08:12 to 2001-08-29 16:50:04
Time Latitude Longitude Temperature Conductivity Salinity ChlorophylA
2001-08-29 06:09:17 51°13.676 2°55.924 -999 -999 -999  
2001-08-29 06:10:17 51°13.677 2°55.924 -999 -999 -999  
2001-08-29 06:11:17 51°13.677 2°55.924 -999 -999 -999  
2001-08-29 06:12:17 51°13.677 2°55.923 -999 -999 -999  
2001-08-29 06:13:17 51°13.677 2°55.923 -999 -999 -999  
2001-08-29 06:14:17 51°13.678 2°55.923 -999 -999 -999  
2001-08-29 06:15:17 51°13.678 2°55.922 -999 -999 -999  
2001-08-29 06:16:17 51°13.678 2°55.922 -999 -999 -999  
2001-08-29 06:17:17 51°13.678 2°55.922 -999 -999 -999  
2001-08-29 06:18:17 51°13.678 2°55.922 -999 -999 -999  
2001-08-29 06:19:17 51°13.677 2°55.922 -999 -999 -999  
2001-08-29 06:20:17 51°13.677 2°55.922 -999 -999 -999  
2001-08-29 06:21:17 51°13.677 2°55.922 -999 -999 -999  
2001-08-29 06:22:17 51°13.677 2°55.922 -999 -999 -999  
2001-08-29 06:23:17 51°13.677 2°55.922 -999 -999 -999  
2001-08-29 06:24:17 51°13.676 2°55.922 -999 -999 -999  
2001-08-29 06:25:17 51°13.676 2°55.923 -999 -999 -999  
2001-08-29 06:26:47 51°13.677 2°55.922 -999 -999 -999  
2001-08-29 06:27:47 51°13.677 2°55.922 -999 -999 -999  
2001-08-29 06:28:47 51°13.677 2°55.922 -999 -999 -999  
2001-08-29 06:29:47 51°13.677 2°55.922 -999 -999 -999  
2001-08-29 06:30:47 51°13.677 2°55.922 -999 -999 -999  
2001-08-29 06:31:55 51°13.677 2°55.922 -999 -999 -999  
2001-08-29 06:33:19 51°13.676 2°55.922 -999 -999 -999  
2001-08-29 06:34:39 51°13.677 2°55.922 -999 -999 -999  
2001-08-29 06:35:39 51°13.677 2°55.922 -999 -999 -999  
2001-08-29 06:36:39 51°13.677 2°55.922 -999 -999 -999  
2001-08-29 06:37:39 51°13.677 2°55.922 -999 -999 -999  
2001-08-29 06:38:39 51°13.677 2°55.922 -999 -999 -999  
2001-08-29 06:39:39 51°13.677 2°55.922 -999 -999 -999  
2001-08-29 06:40:39 51°13.677 2°55.922 -999 -999 -999  
2001-08-29 06:41:39 51°13.677 2°55.921 -999 -999 -999  
2001-08-29 06:42:39 51°13.677 2°55.922 -999 -999 -999  
2001-08-29 06:43:39 51°13.677 2°55.922 -999 -999 -999  
2001-08-29 06:44:39 51°13.677 2°55.922 -999 -999 -999  
2001-08-29 06:45:39 51°13.677 2°55.922 -999 -999 -999  
2001-08-29 06:46:39 51°13.677 2°55.922 -999 -999 -999  
2001-08-29 06:47:39 51°13.677 2°55.922 -999 -999 -999  
2001-08-29 06:48:39 51°13.677 2°55.922 -999 -999 -999  
2001-08-29 06:50:10 51°13.677 2°55.923 -999 -999 -999  
2001-08-29 06:51:30 51°13.677 2°55.923 -999 -999 -999  
2001-08-29 06:52:30 51°13.677 2°55.923 -999 -999 -999  
2001-08-29 06:53:27 51°13.677 2°55.923 -999 -999 -999  
2001-08-29 06:54:27 51°13.676 2°55.923 -999 -999 -999  
2001-08-29 06:55:27 51°13.677 2°55.923 -999 -999 -999  
2001-08-29 06:56:27 51°13.676 2°55.922 -999 -999 -999  
2001-08-29 06:57:27 51°13.676 2°55.923 -999 -999 -999  
2001-08-29 06:58:27 51°13.677 2°55.923 -999 -999 -999  
2001-08-29 06:59:27 51°13.677 2°55.923 -999 -999 -999  
2001-08-29 07:00:27 51°13.677 2°55.923 -999 -999 -999  
2001-08-29 07:01:27 51°13.677 2°55.923 -999 -999 -999  
2001-08-29 07:02:27 51°13.677 2°55.923 -999 -999 -999  
2001-08-29 07:03:27 51°13.677 2°55.923 -999 -999 -999  
2001-08-29 07:04:27 51°13.677 2°55.923 -999 -999 -999  
2001-08-29 07:05:27 51°13.677 2°55.924 -999 -999 -999  
2001-08-29 07:06:27 51°13.675 2°55.924 -999 -999 -999  
2001-08-29 07:07:27 51°13.676 2°55.9 -999 -999 -999  
2001-08-29 07:08:25 51°13.684 2°55.805 -999 -999 -999  
2001-08-29 07:09:25 51°13.691 2°55.74 -999 -999 -999  
2001-08-29 07:10:25 51°13.705 2°55.751 -999 -999 -999  
2001-08-29 07:11:25 51°13.733 2°55.729 -999 -999 -999  
2001-08-29 07:12:25 51°13.812 2°55.653 -999 -999 -999  
2001-08-29 07:13:25 51°13.913 2°55.574 -999 -999 -999  
2001-08-29 07:14:25 51°14.024 2°55.497 -999 -999 -999  
2001-08-29 07:15:25 51°14.132 2°55.416 -999 -999 -999  
2001-08-29 07:16:25 51°14.236 2°55.314 -999 -999 -999  
2001-08-29 07:17:25 51°14.326 2°55.151 -999 -999 -999  
2001-08-29 07:18:25 51°14.454 2°54.965 -999 -999 -999  
2001-08-29 07:19:25 51°14.607 2°54.781 -999 -999 -999  
2001-08-29 07:20:25 51°14.768 2°54.609 -999 -999 -999  
2001-08-29 07:21:25 51°14.925 2°54.428 -999 -999 -999  
2001-08-29 07:22:25 51°15.088 2°54.262 -999 -999 -999  
2001-08-29 07:23:25 51°15.268 2°54.097 -999 -999 -999  
2001-08-29 07:24:25 51°15.46 2°53.911 -999 -999 -999  
2001-08-29 07:25:25 51°15.656 2°53.738 -999 -999 -999  
2001-08-29 07:26:25 51°15.853 2°53.571 -999 -999 -999  
2001-08-29 07:27:25 51°16.05 2°53.411 -999 -999 -999  
2001-08-29 07:28:25 51°16.252 2°53.264 -999 -999 -999  
2001-08-29 07:29:25 51°16.453 2°53.111 -999 -999 -999  
2001-08-29 07:30:25 51°16.65 2°52.95 -999 -999 -999  
2001-08-29 07:31:25 51°16.845 2°52.789 -999 -999 -999  
2001-08-29 07:32:25 51°17.045 2°52.641 -999 -999 -999  
2001-08-29 07:33:25 51°17.243 2°52.488 -999 -999 -999  
2001-08-29 07:34:25 51°17.438 2°52.319 -999 -999 -999  
2001-08-29 07:35:25 51°17.596 2°52.089 -999 -999 -999  
2001-08-29 07:36:25 51°17.699 2°51.78 -999 -999 -999  
2001-08-29 07:37:25 51°17.799 2°51.467 -999 -999 -999  
2001-08-29 07:38:25 51°17.89 2°51.147 -999 -999 -999  
2001-08-29 07:39:25 51°17.98 2°50.827 -999 -999 -999  
2001-08-29 07:40:25 51°18.073 2°50.508 -999 -999 -999  
2001-08-29 07:41:25 51°18.161 2°50.186 -999 -999 -999  
2001-08-29 07:42:25 51°18.252 2°49.866 -999 -999 -999  
2001-08-29 07:43:25 51°18.338 2°49.544 -999 -999 -999  
2001-08-29 07:44:25 51°18.428 2°49.227 -999 -999 -999  
2001-08-29 07:45:25 51°18.513 2°48.908 -999 -999 -999  
2001-08-29 07:46:25 51°18.597 2°48.586 -999 -999 -999  
2001-08-29 07:47:25 51°18.681 2°48.261 -999 -999 -999  
2001-08-29 07:48:25 51°18.773 2°47.941 -999 -999 -999  
2001-08-29 07:49:25 51°18.857 2°47.615 -999 -999 -999  
2001-08-29 07:50:25 51°18.942 2°47.286 -999 -999 -999  
2001-08-29 07:51:25 51°19.031 2°46.958 -999 -999 -999  
2001-08-29 07:52:25 51°19.117 2°46.628 -999 -999 -999  
2001-08-29 07:53:25 51°19.2 2°46.301 -999 -999 -999  
2001-08-29 07:54:25 51°19.286 2°45.975 -999 -999 -999  
2001-08-29 07:55:25 51°19.373 2°45.649 -999 -999 -999  
2001-08-29 07:56:25 51°19.459 2°45.325 -999 -999 -999  
2001-08-29 07:57:25 51°19.543 2°45.004 -999 -999 -999  
2001-08-29 07:58:25 51°19.635 2°44.681 -999 -999 -999  
2001-08-29 07:59:27 51°19.729 2°44.344 -999 -999 -999  
2001-08-29 08:00:27 51°19.817 2°44.016 -999 -999 -999  
2001-08-29 08:01:27 51°19.9 2°43.686 -999 -999 -999  
2001-08-29 08:02:27 51°19.986 2°43.355 -999 -999 -999  
2001-08-29 08:03:27 51°20.07 2°43.023 -999 -999 -999  
2001-08-29 08:04:27 51°20.165 2°42.696 -999 -999 -999  
2001-08-29 08:05:27 51°20.253 2°42.366 -999 -999 -999  
2001-08-29 08:06:25 51°20.333 2°42.044 -999 -999 -999  
2001-08-29 08:07:25 51°20.425 2°41.721 -999 -999 -999  
2001-08-29 08:08:27 51°20.52 2°41.387 -999 -999 -999  
2001-08-29 08:09:27 51°20.608 2°41.061 -999 -999 -999  
2001-08-29 08:10:27 51°20.698 2°40.734 -999 -999 -999  
2001-08-29 08:11:27 51°20.78 2°40.402 -999 -999 -999  
2001-08-29 08:12:27 51°20.869 2°40.074 -999 -999 -999  
2001-08-29 08:13:27 51°20.946 2°39.738 -999 -999 -999  
2001-08-29 08:14:27 51°21.025 2°39.407 -999 -999 -999  
2001-08-29 08:15:27 51°21.136 2°39.098 -999 -999 -999  
2001-08-29 08:16:27 51°21.309 2°38.879 -999 -999 -999  
2001-08-29 08:17:27 51°21.536 2°38.888 -999 -999 -999  
2001-08-29 08:18:27 51°21.764 2°38.985 -999 -999 -999  
2001-08-29 08:19:27 51°21.991 2°39.082 -999 -999 -999  
2001-08-29 08:20:27 51°22.222 2°39.167 -999 -999 -999  
2001-08-29 08:21:27 51°22.451 2°39.254 -999 -999 -999  
2001-08-29 08:22:27 51°22.68 2°39.355 -999 -999 -999  
2001-08-29 08:23:27 51°22.911 2°39.439 -999 -999 -999  
2001-08-29 08:24:27 51°23.145 2°39.513 -999 -999 -999  
2001-08-29 08:25:27 51°23.379 2°39.58 -999 -999 -999  
2001-08-29 08:26:27 51°23.608 2°39.673 -999 -999 -999  
2001-08-29 08:27:27 51°23.838 2°39.788 -999 -999 -999  
2001-08-29 08:28:27 51°24.066 2°39.913 -999 -999 -999  
2001-08-29 08:29:27 51°24.294 2°40.015 -999 -999 -999  
2001-08-29 08:30:27 51°24.523 2°40.091 -999 -999 -999  
2001-08-29 08:31:27 51°24.754 2°40.154 -999 -999 -999  
2001-08-29 08:32:27 51°24.986 2°40.188 -999 -999 -999  
2001-08-29 08:33:27 51°25.219 2°40.22 -999 -999 -999  
2001-08-29 08:34:27 51°25.45 2°40.272 -999 -999 -999  
2001-08-29 08:35:27 51°25.679 2°40.342 -999 -999 -999  
2001-08-29 08:36:27 51°25.904 2°40.446 -999 -999 -999  
2001-08-29 08:37:27 51°26.127 2°40.567 -999 -999 -999  
2001-08-29 08:38:27 51°26.298 2°40.811 -999 -999 -999  
2001-08-29 08:39:27 51°26.431 2°41.114 -999 -999 -999  
2001-08-29 08:40:27 51°26.558 2°41.427 -999 -999 -999  
2001-08-29 08:41:27 51°26.676 2°41.748 -999 -999 -999  
2001-08-29 08:42:27 51°26.787 2°42.075 -999 -999 -999  
2001-08-29 08:43:27 51°26.907 2°42.395 -999 -999 -999  
2001-08-29 08:44:27 51°27.024 2°42.72 -999 -999 -999  
2001-08-29 08:45:27 51°27.136 2°43.049 -999 -999 -999  
2001-08-29 08:46:27 51°27.251 2°43.376 -999 -999 -999  
2001-08-29 08:47:27 51°27.363 2°43.707 -999 -999 -999  
2001-08-29 08:48:27 51°27.473 2°44.04 -999 -999 -999  
2001-08-29 08:49:27 51°27.585 2°44.37 -999 -999 -999  
2001-08-29 08:50:27 51°27.601 2°44.716 -999 -999 -999  
2001-08-29 08:51:27 51°27.432 2°44.885 -999 -999 -999  
2001-08-29 08:52:27 51°27.235 2°45.015 -999 -999 -999  
2001-08-29 08:53:27 51°27.04 2°45.148 -999 -999 -999  
2001-08-29 08:54:27 51°26.846 2°45.29 -999 -999 -999  
2001-08-29 08:55:27 51°26.649 2°45.422 -999 -999 -999  
2001-08-29 08:56:27 51°26.454 2°45.559 -999 -999 -999  
2001-08-29 08:57:27 51°26.256 2°45.689 -999 -999 -999  
2001-08-29 08:58:27 51°26.059 2°45.82 -999 -999 -999  
2001-08-29 08:59:27 51°25.86 2°45.954 -999 -999 -999  
2001-08-29 09:00:27 51°25.663 2°46.095 -999 -999 -999  
2001-08-29 09:01:27 51°25.465 2°46.237 -999 -999 -999  
2001-08-29 09:02:27 51°25.266 2°46.37 -999 -999 -999  
2001-08-29 09:03:27 51°25.066 2°46.498 -999 -999 -999  
2001-08-29 09:04:27 51°24.865 2°46.613 -999 -999 -999  
2001-08-29 09:05:27 51°24.807 2°46.917 -999 -999 -999  
2001-08-29 09:06:27 51°24.925 2°47.239 -999 -999 -999  
2001-08-29 09:07:27 51°25.041 2°47.568 -999 -999 -999  
2001-08-29 09:08:27 51°25.164 2°47.893 -999 -999 -999  
2001-08-29 09:09:27 51°25.28 2°48.226 -999 -999 -999  
2001-08-29 09:10:27 51°25.399 2°48.555 -999 -999 -999  
2001-08-29 09:11:27 51°25.52 2°48.885 -999 -999 -999  
2001-08-29 09:12:27 51°25.639 2°49.218 -999 -999 -999  
2001-08-29 09:13:27 51°25.76 2°49.551 -999 -999 -999  
2001-08-29 09:14:27 51°25.885 2°49.878 -999 -999 -999  
2001-08-29 09:15:27 51°26.02 2°50.196 -999 -999 -999  
2001-08-29 09:16:27 51°26.232 2°50.351 -999 -999 -999  
2001-08-29 09:17:27 51°26.456 2°50.265 -999 -999 -999  
2001-08-29 09:18:27 51°26.657 2°50.093 -999 -999 -999  
2001-08-29 09:19:25 51°26.851 2°49.929 -999 -999 -999  
2001-08-29 09:20:27 51°27.059 2°49.752 -999 -999 -999  
2001-08-29 09:21:27 51°27.262 2°49.591 -999 -999 -999  
2001-08-29 09:22:27 51°27.462 2°49.419 -999 -999 -999  
2001-08-29 09:23:27 51°27.668 2°49.258 -999 -999 -999  
2001-08-29 09:24:27 51°27.873 2°49.098 -999 -999 -999  
2001-08-29 09:25:27 51°28.078 2°48.937 -999 -999 -999  
2001-08-29 09:26:27 51°28.287 2°48.786 -999 -999 -999  
2001-08-29 09:27:27 51°28.493 2°48.629 -999 -999 -999  
2001-08-29 09:28:27 51°28.703 2°48.632 -999 -999 -999  
2001-08-29 09:29:27 51°28.804 2°48.962 -999 -999 -999  
2001-08-29 09:30:27 51°28.895 2°49.317 -999 -999 -999  
2001-08-29 09:31:27 51°28.981 2°49.677 -999 -999 -999  
2001-08-29 09:32:27 51°29.078 2°50.03 -999 -999 -999  
2001-08-29 09:33:27 51°29.174 2°50.384 -999 -999 -999  
2001-08-29 09:34:27 51°29.267 2°50.74 -999 -999 -999  
2001-08-29 09:35:27 51°29.366 2°51.094 -999 -999 -999  
2001-08-29 09:36:27 51°29.458 2°51.449 -999 -999 -999  
2001-08-29 09:37:27 51°29.544 2°51.806 -999 -999 -999  
2001-08-29 09:38:27 51°29.619 2°52.165 -999 -999 -999  
2001-08-29 09:39:27 51°29.533 2°52.458 -999 -999 -999  
2001-08-29 09:40:27 51°29.345 2°52.615 -999 -999 -999  
2001-08-29 09:41:27 51°29.153 2°52.773 -999 -999 -999  
2001-08-29 09:42:27 51°28.961 2°52.931 -999 -999 -999  
2001-08-29 09:43:27 51°28.763 2°53.076 -999 -999 -999  
2001-08-29 09:44:27 51°28.574 2°53.242 -999 -999 -999  
2001-08-29 09:45:27 51°28.382 2°53.4 -999 -999 -999  
2001-08-29 09:46:25 51°28.196 2°53.552 -999 -999 -999  
2001-08-29 09:47:26 51°28.003 2°53.713 -999 -999 -999  
2001-08-29 09:48:25 51°27.822 2°53.875 -999 -999 -999  
2001-08-29 09:49:27 51°27.625 2°54.03 -999 -999 -999  
2001-08-29 09:50:27 51°27.442 2°54.207 -999 -999 -999  
2001-08-29 09:51:27 51°27.336 2°54.506 -999 -999 -999  
2001-08-29 09:52:27 51°27.425 2°54.84 -999 -999 -999  
2001-08-29 09:53:27 51°27.622 2°55.067 -999 -999 -999  
2001-08-29 09:54:27 51°27.816 2°55.301 -999 -999 -999  
2001-08-29 09:55:27 51°28.011 2°55.535 -999 -999 -999  
2001-08-29 09:56:27 51°28.205 2°55.768 -999 -999 -999  
2001-08-29 09:57:27 51°28.396 2°56.009 -999 -999 -999  
2001-08-29 09:58:27 51°28.588 2°56.25 -999 -999 -999  
2001-08-29 09:59:27 51°28.778 2°56.496 -999 -999 -999  
2001-08-29 10:00:27 51°28.966 2°56.747 -999 -999 -999  
2001-08-29 10:01:25 51°29.148 2°56.989 -999 -999 -999  
2001-08-29 10:02:27 51°29.343 2°57.248 -999 -999 -999  
2001-08-29 10:03:27 51°29.526 2°57.506 -999 -999 -999  
2001-08-29 10:04:27 51°29.712 2°57.762 -999 -999 -999  
2001-08-29 10:05:27 51°29.9 2°58.01 -999 -999 -999  
2001-08-29 10:06:27 51°30.091 2°58.256 -999 -999 -999  
2001-08-29 10:07:27 51°30.284 2°58.498 -999 -999 -999  
2001-08-29 10:08:27 51°30.468 2°58.749 -999 -999 -999  
2001-08-29 10:09:27 51°30.653 2°58.996 -999 -999 -999  
2001-08-29 10:10:27 51°30.834 2°59.247 -999 -999 -999  
2001-08-29 10:11:27 51°31.023 2°59.487 -999 -999 -999  
2001-08-29 10:12:27 51°31.221 2°59.707 -999 -999 -999  
2001-08-29 10:13:27 51°31.426 2°59.916 -999 -999 -999  
2001-08-29 10:14:27 51°31.622 3°0.143 -999 -999 -999  
2001-08-29 10:15:27 51°31.816 3°0.378 -999 -999 -999  
2001-08-29 10:16:27 51°31.936 3°0.677 -999 -999 -999  
2001-08-29 10:17:27 51°31.799 3°0.899 -999 -999 -999  
2001-08-29 10:18:27 51°31.601 3°1.032 -999 -999 -999  
2001-08-29 10:19:27 51°31.402 3°1.156 -999 -999 -999  
2001-08-29 10:20:27 51°31.203 3°1.286 -999 -999 -999  
2001-08-29 10:21:27 51°31.002 3°1.407 -999 -999 -999  
2001-08-29 10:22:27 51°30.799 3°1.515 -999 -999 -999  
2001-08-29 10:23:27 51°30.597 3°1.623 -999 -999 -999  
2001-08-29 10:24:27 51°30.393 3°1.722 -999 -999 -999  
2001-08-29 10:25:27 51°30.188 3°1.81 -999 -999 -999  
2001-08-29 10:26:27 51°29.986 3°1.909 -999 -999 -999  
2001-08-29 10:27:27 51°29.78 3°1.999 -999 -999 -999  
2001-08-29 10:28:27 51°29.577 3°2.1 -999 -999 -999  
2001-08-29 10:29:27 51°29.376 3°2.221 -999 -999 -999  
2001-08-29 10:30:26 51°29.179 3°2.33 -999 -999 -999  
2001-08-29 10:31:25 51°28.981 3°2.429 -999 -999 -999  
2001-08-29 10:32:25 51°28.779 3°2.531 -999 -999 -999  
2001-08-29 10:33:25 51°28.575 3°2.631 -999 -999 -999  
2001-08-29 10:34:25 51°28.372 3°2.739 -999 -999 -999  
2001-08-29 10:35:25 51°28.169 3°2.838 -999 -999 -999  
2001-08-29 10:36:25 51°27.964 3°2.946 -999 -999 -999  
2001-08-29 10:37:25 51°27.758 3°3.038 -999 -999 -999  
2001-08-29 10:38:25 51°27.55 3°3.136 -999 -999 -999  
2001-08-29 10:39:25 51°27.348 3°3.25 -999 -999 -999  
2001-08-29 10:40:25 51°27.143 3°3.344 -999 -999 -999  
2001-08-29 10:41:25 51°26.946 3°3.476 -999 -999 -999  
2001-08-29 10:42:25 51°26.745 3°3.592 -999 -999 -999  
2001-08-29 10:43:25 51°26.546 3°3.709 -999 -999 -999  
2001-08-29 10:44:25 51°26.406 3°3.97 -999 -999 -999  
2001-08-29 10:45:25 51°26.296 3°4.28 -999 -999 -999  
2001-08-29 10:46:25 51°26.187 3°4.587 -999 -999 -999  
2001-08-29 10:47:25 51°26.075 3°4.894 -999 -999 -999  
2001-08-29 10:48:25 51°25.971 3°5.206 -999 -999 -999  
2001-08-29 10:49:25 51°25.863 3°5.517 -999 -999 -999  
2001-08-29 10:50:25 51°25.754 3°5.827 -999 -999 -999  
2001-08-29 10:51:25 51°25.647 3°6.141 -999 -999 -999  
2001-08-29 10:52:25 51°25.531 3°6.447 -999 -999 -999  
2001-08-29 10:53:25 51°25.425 3°6.762 -999 -999 -999  
2001-08-29 10:54:25 51°25.317 3°7.076 -999 -999 -999  
2001-08-29 10:55:25 51°25.204 3°7.383 -999 -999 -999  
2001-08-29 10:56:25 51°25.102 3°7.701 -999 -999 -999  
2001-08-29 10:57:26 51°24.994 3°8.022 -999 -999 -999  
2001-08-29 10:58:25 51°24.886 3°8.333 -999 -999 -999  
2001-08-29 10:59:25 51°24.799 3°8.67 -999 -999 -999  
2001-08-29 11:00:25 51°24.74 3°9.023 -999 -999 -999  
2001-08-29 11:01:25 51°24.677 3°9.377 -999 -999 -999  
2001-08-29 11:02:25 51°24.641 3°9.742 -999 -999 -999  
2001-08-29 11:03:25 51°24.586 3°10.103 -999 -999 -999  
2001-08-29 11:04:25 51°24.521 3°10.458 -999 -999 -999  
2001-08-29 11:05:25 51°24.456 3°10.816 -999 -999 -999  
2001-08-29 11:06:25 51°24.383 3°11.168 -999 -999 -999  
2001-08-29 11:07:25 51°24.32 3°11.526 -999 -999 -999  
2001-08-29 11:08:25 51°24.263 3°11.884 -999 -999 -999  
2001-08-29 11:09:25 51°24.183 3°12.23 -999 -999 -999  
2001-08-29 11:10:25 51°24.103 3°12.576 -999 -999 -999  
2001-08-29 11:11:27 51°24.019 3°12.929 -999 -999 -999  
2001-08-29 11:12:25 51°23.951 3°13.268 -999 -999 -999  
2001-08-29 11:13:25 51°23.864 3°13.605 -999 -999 -999  
2001-08-29 11:14:25 51°23.768 3°13.935 -999 -999 -999  
2001-08-29 11:15:25 51°23.709 3°14.287 -999 -999 -999  
2001-08-29 11:16:25 51°23.82 3°14.579 -999 -999 -999  
2001-08-29 11:17:25 51°23.991 3°14.457 -999 -999 -999  
2001-08-29 11:18:25 51°24.077 3°14.145 -999 -999 -999  
2001-08-29 11:19:25 51°24.224 3°13.886 -999 -999 -999  
2001-08-29 11:20:25 51°24.407 3°13.685 -999 -999 -999  
2001-08-29 11:21:25 51°24.596 3°13.49 -999 -999 -999  
2001-08-29 11:22:25 51°24.77 3°13.269 -999 -999 -999  
2001-08-29 11:23:25 51°24.899 3°12.987 -999 -999 -999  
2001-08-29 11:24:25 51°24.998 3°12.673 -999 -999 -999  
2001-08-29 11:25:25 51°25.087 3°12.342 -999 -999 -999  
2001-08-29 11:26:25 51°25.198 3°12.027 -999 -999 -999  
2001-08-29 11:27:25 51°25.317 3°11.717 -999 -999 -999  
2001-08-29 11:28:25 51°25.433 3°11.408 -999 -999 -999  
2001-08-29 11:29:25 51°25.557 3°11.106 -999 -999 -999  
2001-08-29 11:30:25 51°25.672 3°10.792 -999 -999 -999  
2001-08-29 11:31:25 51°25.793 3°10.487 -999 -999 -999  
2001-08-29 11:32:25 51°25.917 3°10.178 -999 -999 -999  
2001-08-29 11:33:25 51°26.046 3°9.874 -999 -999 -999  
2001-08-29 11:34:25 51°26.185 3°9.577 -999 -999 -999  
2001-08-29 11:35:25 51°26.321 3°9.277 -999 -999 -999  
2001-08-29 11:36:25 51°26.449 3°8.968 -999 -999 -999  
2001-08-29 11:37:25 51°26.575 3°8.659 -999 -999 -999  
2001-08-29 11:38:25 51°26.704 3°8.357 -999 -999 -999  
2001-08-29 11:39:25 51°26.828 3°8.051 -999 -999 -999  
2001-08-29 11:40:25 51°26.954 3°7.751 -999 -999 -999  
2001-08-29 11:41:25 51°27.084 3°7.453 -999 -999 -999  
2001-08-29 11:42:25 51°27.214 3°7.151 -999 -999 -999  
2001-08-29 11:43:25 51°27.343 3°6.851 -999 -999 -999  
2001-08-29 11:44:25 51°27.473 3°6.549 -999 -999 -999  
2001-08-29 11:45:25 51°27.605 3°6.254 -999 -999 -999  
2001-08-29 11:46:25 51°27.819 3°6.202 -999 -999 -999  
2001-08-29 11:47:31 51°27.97 3°6.5 -999 -999 -999  
2001-08-29 11:48:31 51°28.058 3°6.835 -999 -999 -999  
2001-08-29 11:49:31 51°28.155 3°7.164 -999 -999 -999  
2001-08-29 11:50:31 51°28.254 3°7.493 -999 -999 -999  
2001-08-29 11:51:31 51°28.344 3°7.828 -999 -999 -999  
2001-08-29 11:52:31 51°28.438 3°8.16 -999 -999 -999  
2001-08-29 11:53:31 51°28.524 3°8.496 -999 -999 -999  
2001-08-29 11:54:31 51°28.625 3°8.823 -999 -999 -999  
2001-08-29 11:55:31 51°28.714 3°9.158 -999 -999 -999  
2001-08-29 11:56:31 51°28.805 3°9.493 -999 -999 -999  
2001-08-29 11:57:31 51°28.906 3°9.819 -999 -999 -999  
2001-08-29 11:58:31 51°28.986 3°10.149 -999 -999 -999  
2001-08-29 11:59:31 51°28.894 3°10.428 -999 -999 -999  
2001-08-29 12:00:31 51°28.736 3°10.648 -999 -999 -999  
2001-08-29 12:01:31 51°28.577 3°10.864 -999 -999 -999  
2001-08-29 12:02:31 51°28.421 3°11.083 -999 -999 -999  
2001-08-29 12:03:31 51°28.267 3°11.307 -999 -999 -999  
2001-08-29 12:04:31 51°28.114 3°11.531 -999 -999 -999  
2001-08-29 12:05:31 51°27.969 3°11.765 -999 -999 -999  
2001-08-29 12:06:31 51°27.812 3°11.988 -999 -999 -999  
2001-08-29 12:07:31 51°27.659 3°12.211 -999 -999 -999  
2001-08-29 12:08:31 51°27.515 3°12.446 -999 -999 -999  
2001-08-29 12:09:31 51°27.365 3°12.675 -999 -999 -999  
2001-08-29 12:10:31 51°27.212 3°12.895 -999 -999 -999  
2001-08-29 12:11:31 51°27.054 3°13.102 -999 -999 -999  
2001-08-29 12:12:31 51°26.898 3°13.319 -999 -999 -999  
2001-08-29 12:13:31 51°26.744 3°13.532 -999 -999 -999  
2001-08-29 12:14:31 51°26.594 3°13.762 -999 -999 -999  
2001-08-29 12:15:31 51°26.449 3°13.989 -999 -999 -999  
2001-08-29 12:16:31 51°26.295 3°14.197 -999 -999 -999  
2001-08-29 12:17:31 51°26.157 3°14.432 -999 -999 -999  
2001-08-29 12:18:31 51°26.007 3°14.645 -999 -999 -999  
2001-08-29 12:19:31 51°25.857 3°14.867 -999 -999 -999  
2001-08-29 12:20:31 51°25.71 3°15.101 -999 -999 -999  
2001-08-29 12:21:31 51°25.617 3°15.395 -999 -999 -999  
2001-08-29 12:22:31 51°25.535 3°15.703 -999 -999 -999  
2001-08-29 12:23:31 51°25.451 3°16.013 -999 -999 -999  
2001-08-29 12:24:31 51°25.368 3°16.327 -999 -999 -999  
2001-08-29 12:25:31 51°25.273 3°16.631 -999 -999 -999  
2001-08-29 12:26:31 51°25.18 3°16.938 -999 -999 -999  
2001-08-29 12:27:31 51°25.134 3°17.269 -999 -999 -999  
2001-08-29 12:28:31 51°25.052 3°17.583 -999 -999 -999  
2001-08-29 12:29:31 51°24.952 3°17.881 -999 -999 -999  
2001-08-29 12:30:31 51°24.861 3°18.184 -999 -999 -999  
2001-08-29 12:31:31 51°24.756 3°18.474 -999 -999 -999  
2001-08-29 12:32:31 51°24.661 3°18.779 -999 -999 -999  
2001-08-29 12:33:31 51°24.571 3°19.083 -999 -999 -999  
2001-08-29 12:34:31 51°24.472 3°19.375 -999 -999 -999  
2001-08-29 12:35:31 51°24.379 3°19.674 -999 -999 -999  
2001-08-29 12:36:31 51°24.285 3°19.971 -999 -999 -999  
2001-08-29 12:37:32 51°24.094 3°20.094 -999 -999 -999  
2001-08-29 12:38:32 51°23.93 3°19.892 -999 -999 -999  
2001-08-29 12:39:32 51°23.808 3°19.58 -999 -999 -999  
2001-08-29 12:40:32 51°23.675 3°19.274 -999 -999 -999  
2001-08-29 12:41:32 51°23.552 3°18.954 -999 -999 -999  
2001-08-29 12:42:32 51°23.446 3°18.622 -999 -999 -999  
2001-08-29 12:43:30 51°23.37 3°18.284 -999 -999 -999  
2001-08-29 12:44:30 51°23.321 3°17.919 -999 -999 -999  
2001-08-29 12:45:32 51°23.293 3°17.536 -999 -999 -999  
2001-08-29 12:46:32 51°23.263 3°17.165 -999 -999 -999  
2001-08-29 12:47:32 51°23.232 3°16.792 -999 -999 -999  
2001-08-29 12:48:32 51°23.209 3°16.417 -999 -999 -999  
2001-08-29 12:49:32 51°23.187 3°16.042 -999 -999 -999  
2001-08-29 12:50:32 51°23.164 3°15.665 -999 -999 -999  
2001-08-29 12:51:32 51°23.142 3°15.286 -999 -999 -999  
2001-08-29 12:52:32 51°23.114 3°14.906 -999 -999 -999  
2001-08-29 12:53:32 51°23.087 3°14.526 -999 -999 -999  
2001-08-29 12:54:32 51°23.06 3°14.149 -999 -999 -999  
2001-08-29 12:55:32 51°23.036 3°13.77 -999 -999 -999  
2001-08-29 12:56:32 51°23.003 3°13.393 -999 -999 -999  
2001-08-29 12:57:32 51°22.972 3°13.014 -999 -999 -999  
2001-08-29 12:58:32 51°22.938 3°12.638 -999 -999 -999  
2001-08-29 12:59:32 51°22.887 3°12.269 -999 -999 -999  
2001-08-29 13:00:32 51°22.851 3°11.897 -999 -999 -999  
2001-08-29 13:01:32 51°22.802 3°11.531 -999 -999 -999  
2001-08-29 13:02:32 51°22.758 3°11.166 -999 -999 -999  
2001-08-29 13:03:32 51°22.718 3°10.798 -999 -999 -999  
2001-08-29 13:04:32 51°22.67 3°10.433 -999 -999 -999  
2001-08-29 13:05:32 51°22.612 3°10.07 -999 -999 -999  
2001-08-29 13:06:32 51°22.552 3°9.712 -999 -999 -999  
2001-08-29 13:07:32 51°22.493 3°9.347 -999 -999 -999  
2001-08-29 13:08:32 51°22.426 3°8.987 -999 -999 -999  
2001-08-29 13:09:32 51°22.366 3°8.624 -999 -999 -999  
2001-08-29 13:10:32 51°22.297 3°8.265 -999 -999 -999  
2001-08-29 13:11:32 51°22.226 3°7.906 -999 -999 -999  
2001-08-29 13:12:32 51°22.157 3°7.545 -999 -999 -999  
2001-08-29 13:13:32 51°22.089 3°7.185 -999 -999 -999  
2001-08-29 13:14:32 51°22.021 3°6.826 -999 -999 -999  
2001-08-29 13:15:32 51°21.944 3°6.474 -999 -999 -999  
2001-08-29 13:16:32 51°21.872 3°6.12 -999 -999 -999  
2001-08-29 13:17:32 51°21.793 3°5.771 -999 -999 -999  
2001-08-29 13:18:32 51°21.709 3°5.424 -999 -999 -999  
2001-08-29 13:19:32 51°21.633 3°5.071 -999 -999 -999  
2001-08-29 13:20:32 51°21.545 3°4.726 -999 -999 -999  
2001-08-29 13:21:32 51°21.477 3°4.37 -999 -999 -999  
2001-08-29 13:22:32 51°21.398 3°4.018 -999 -999 -999  
2001-08-29 13:23:32 51°21.312 3°3.671 -999 -999 -999  
2001-08-29 13:24:32 51°21.235 3°3.319 -999 -999 -999  
2001-08-29 13:25:32 51°21.152 3°2.972 -999 -999 -999  
2001-08-29 13:26:32 51°21.067 3°2.627 -999 -999 -999  
2001-08-29 13:27:32 51°20.98 3°2.284 -999 -999 -999  
2001-08-29 13:28:32 51°20.909 3°1.93 -999 -999 -999  
2001-08-29 13:29:32 51°20.819 3°1.585 -999 -999 -999  
2001-08-29 13:30:32 51°20.741 3°1.232 -999 -999 -999  
2001-08-29 13:31:32 51°20.657 3°0.882 -999 -999 -999  
2001-08-29 13:32:32 51°20.574 3°0.531 -999 -999 -999  
2001-08-29 13:33:32 51°20.489 3°0.182 -999 -999 -999  
2001-08-29 13:34:32 51°20.398 2°59.836 -999 -999 -999  
2001-08-29 13:35:32 51°20.312 2°59.487 -999 -999 -999  
2001-08-29 13:36:32 51°20.229 2°59.135 -999 -999 -999  
2001-08-29 13:37:32 51°20.145 2°58.784 -999 -999 -999  
2001-08-29 13:38:32 51°20.058 2°58.435 -999 -999 -999  
2001-08-29 13:39:32 51°19.971 2°58.087 -999 -999 -999  
2001-08-29 13:40:32 51°19.884 2°57.738 -999 -999 -999  
2001-08-29 13:41:32 51°19.798 2°57.39 -999 -999 -999  
2001-08-29 13:42:32 51°19.712 2°57.043 -999 -999 -999  
2001-08-29 13:43:32 51°19.627 2°56.696 -999 -999 -999  
2001-08-29 13:44:32 51°19.541 2°56.349 -999 -999 -999  
2001-08-29 13:45:32 51°19.457 2°56.001 -999 -999 -999  
2001-08-29 13:46:32 51°19.37 2°55.658 -999 -999 -999  
2001-08-29 13:47:32 51°19.288 2°55.312 -999 -999 -999  
2001-08-29 13:48:32 51°19.202 2°54.966 -999 -999 -999  
2001-08-29 13:49:32 51°19.12 2°54.617 -999 -999 -999  
2001-08-29 13:50:32 51°19.035 2°54.272 -999 -999 -999  
2001-08-29 13:51:32 51°18.948 2°53.925 -999 -999 -999  
2001-08-29 13:52:32 51°18.862 2°53.576 -999 -999 -999  
2001-08-29 13:53:32 51°18.776 2°53.228 -999 -999 -999  
2001-08-29 13:54:32 51°18.695 2°52.875 -999 -999 -999  
2001-08-29 13:55:32 51°18.603 2°52.533 -999 -999 -999  
2001-08-29 13:56:32 51°18.422 2°52.309 -999 -999 -999  
2001-08-29 13:57:32 51°18.201 2°52.233 -999 -999 -999  
2001-08-29 13:58:32 51°17.974 2°52.232 -999 -999 -999  
2001-08-29 13:59:32 51°17.749 2°52.251 -999 -999 -999  
2001-08-29 14:00:32 51°17.527 2°52.305 -999 -999 -999  
2001-08-29 14:01:32 51°17.315 2°52.41 -999 -999 -999  
2001-08-29 14:02:32 51°17.115 2°52.56 -999 -999 -999  
2001-08-29 14:03:32 51°16.917 2°52.71 -999 -999 -999  
2001-08-29 14:04:32 51°16.715 2°52.86 -999 -999 -999  
2001-08-29 14:05:32 51°16.506 2°52.993 -999 -999 -999  
2001-08-29 14:06:32 51°16.303 2°53.136 -999 -999 -999  
2001-08-29 14:07:32 51°16.104 2°53.29 -999 -999 -999  
2001-08-29 14:08:32 51°15.911 2°53.459 -999 -999 -999  
2001-08-29 14:09:32 51°15.721 2°53.635 -999 -999 -999  
2001-08-29 14:10:32 51°15.528 2°53.812 -999 -999 -999  
2001-08-29 14:11:32 51°15.332 2°53.972 -999 -999 -999  
2001-08-29 14:12:32 51°15.142 2°54.144 -999 -999 -999  
2001-08-29 14:13:32 51°14.952 2°54.316 -999 -999 -999  
2001-08-29 14:14:32 51°14.766 2°54.507 -999 -999 -999  
2001-08-29 14:15:32 51°14.592 2°54.707 -999 -999 -999  
2001-08-29 14:16:32 51°14.433 2°54.926 -999 -999 -999  
2001-08-29 14:17:32 51°14.302 2°55.183 -999 -999 -999  
2001-08-29 14:18:32 51°14.162 2°55.382 -999 -999 -999  
2001-08-29 14:19:32 51°14.061 2°55.453 -999 -999 -999  
2001-08-29 14:20:34 51°13.976 2°55.511 -999 -999 -999  
2001-08-29 14:21:36 51°13.854 2°55.602 -999 -999 -999  
2001-08-29 14:22:36 51°13.775 2°55.681 -999 -999 -999  
2001-08-29 14:23:36 51°13.735 2°55.752 -999 -999 -999  
2001-08-29 14:24:36 51°13.709 2°55.81 -999 -999 -999  
2001-08-29 14:25:36 51°13.69 2°55.868 -999 -999 -999  
2001-08-29 14:26:36 51°13.676 2°55.92 -999 -999 -999  
2001-08-29 14:27:36 51°13.677 2°55.918 -999 -999 -999  
2001-08-29 14:28:36 51°13.677 2°55.924 -999 -999 -999  
2001-08-29 14:29:36 51°13.677 2°55.924 -999 -999 -999  
2001-08-29 14:30:36 51°13.676 2°55.924 -999 -999 -999